Bellingham, WA
on Thursday, February 14, 2013

Thursday
Previous Day Next Day
Daily Summary
 ActualAverageRecord
Temperature
Mean Temperature °F 41°F  
Max Temperature 46°F 48°F 59°F (1992)
Min Temperature 42°F 33°F 12°F (1956)
Degree Days
Heating Degree Days 21 24  
Month to date heating degree days 347  
Cooling Degree Days 0 0  
Month to date cooling degree days 0  
Year to date cooling degree days 0  
Moisture
Dew Point 41°F   
Average Humidity 89    
Maximum Humidity 97    
Minimum Humidity 76    
Precipitation
Precipitation 0.15 in 0.11 in 1.68 in (1982)
Month to date precipitation 1.58  
Year to date precipitation 6.25  
Wind
Wind Speed 3 mph   
Max Wind Speed 9 mph   
Max Gust Speed mph   
Visibility 7 miles   
Events Rain   

Key: T is trace of precipitation, MM is missing value
Source: NWS Daily Summary
Time(PST)TemperatureDew PointHumidity Pressure Visibility Wind DirectionWind SpeedGust SpeedPrecipitationEvents Conditions
12:53 AM 45.0°F 37.9°F 76% 30.50 in 10.0 miles SSE 6.9 mph - N/A   Overcast
1:53 AM 45.0°F 37.9°F 76% 30.50 in 10.0 miles SSE 4.6 mph - N/A   Overcast
2:53 AM 45.0°F 39.0°F 80% 30.50 in 10.0 miles South 9.2 mph - 0.00 in Rain Light Rain
3:53 AM 44.1°F 41.0°F 89% 30.51 in 7.0 miles South 4.6 mph - 0.00 in Rain Light Rain
4:03 AM 44.6°F 41.0°F 87% 30.49 in 6.0 miles South 4.6 mph - 0.01 in Rain Light Rain
4:48 AM 44.6°F 41.0°F 87% 30.51 in 5.0 miles Calm Calm - 0.07 in Rain Light Rain
4:53 AM 44.1°F 41.0°F 89% 30.53 in 6.0 miles Calm Calm - 0.08 in Rain Light Rain
5:00 AM 42.8°F 41.0°F 93% 30.51 in 6.0 miles Variable 3.5 mph - 0.00 in Rain Light Rain
5:53 AM 43.0°F 41.0°F 93% 30.53 in 7.0 miles Calm Calm - 0.04 in Rain Light Rain
6:39 AM 42.8°F 41.0°F 93% 30.51 in 9.0 miles Calm Calm - 0.02 in Rain Light Rain
6:53 AM 42.1°F 41.0°F 96% 30.54 in 9.0 miles Calm Calm - 0.03 in Rain Light Rain
7:53 AM 42.1°F 41.0°F 96% 30.55 in 4.0 miles Calm Calm - 0.00 in Rain Light Rain
8:50 AM 44.6°F 42.8°F 93% 30.52 in 8.0 miles SE 3.5 mph - 0.00 in   Overcast
8:53 AM 44.1°F 41.0°F 89% 30.55 in 8.0 miles Calm Calm - 0.00 in   Overcast
9:53 AM 45.0°F 42.1°F 90% 30.57 in 6.0 miles Calm Calm - N/A   Overcast
10:53 AM 45.0°F 41.0°F 86% 30.57 in 10.0 miles Calm Calm - N/A   Overcast
11:53 AM 46.0°F 42.1°F 86% 30.58 in 10.0 miles Calm Calm - N/A   Overcast
12:53 PM 46.0°F 41.0°F 83% 30.57 in 10.0 miles SSE 5.8 mph - N/A   Overcast
1:53 PM 46.9°F 41.0°F 80% 30.58 in 10.0 miles South 5.8 mph - N/A   Overcast
2:53 PM 46.9°F 41.0°F 80% 30.58 in 10.0 miles Calm Calm - N/A   Overcast
3:49 PM 46.4°F 42.8°F 87% 30.56 in 10.0 miles Calm Calm - N/A   Overcast
3:53 PM 46.0°F 43.0°F 89% 30.58 in 10.0 miles Calm Calm - N/A   Overcast
4:33 PM 44.6°F 42.8°F 93% 30.55 in 2.0 miles Calm Calm - N/A   Overcast
4:53 PM 45.0°F 43.0°F 93% 30.58 in 1.8 miles ENE 3.5 mph - N/A   Overcast
5:07 PM 44.6°F 42.8°F 93% 30.55 in 2.0 miles ENE 3.5 mph - N/A   Overcast
5:29 PM 44.6°F 42.8°F 93% 30.55 in 4.0 miles Calm Calm - N/A   Overcast
5:53 PM 44.1°F 42.1°F 93% 30.59 in 10.0 miles NNE 3.5 mph - N/A   Overcast
6:53 PM 44.1°F 42.1°F 93% 30.59 in 4.0 miles Calm Calm - N/A   Overcast
7:53 PM 44.1°F 42.1°F 93% 30.59 in 6.0 miles NE 3.5 mph - N/A   Overcast
8:53 PM 44.1°F 42.1°F 93% 30.59 in 9.0 miles NNE 3.5 mph - N/A   Overcast
9:53 PM 44.1°F 42.1°F 93% 30.59 in 8.0 miles NNE 3.5 mph - N/A   Overcast
10:53 PM 44.1°F 42.1°F 93% 30.60 in 5.0 miles North 3.5 mph - N/A   Overcast
11:12 PM 44.6°F 42.8°F 93% 30.58 in 2.5 miles NNE 4.6 mph - N/A   Overcast
11:53 PM 43.0°F 42.1°F 97% 30.60 in 2.0 miles NNE 4.6 mph - N/A   Overcast
Moon Phase
Feb. 14 Feb. 17 Feb. 25 Mar. 04 Mar. 11
Sunrise:07:19 AM (PST) Moon Rise:08:55 AM (PST)2/14
Sunset:05:30 PM (PST) Moon Set:11:10 PM (PST)2/14

Copyright © 2014 The Weather Underground, Inc.